Weather History for San Angelo, TX

Change the Weather History Date:

Saturday, September 21, 2013

  Actual Average Record
Temperature  
Mean Temperature 70 °F 74 °F  
Max Temperature 80 °F 86 °F 101 °F (1977)
Min Temperature 60 °F 62 °F 37 °F (1913)
Degree Days  
Heating Degree Days 0 0  
Month to date heating degree days 0 0  
Since 1 July heating degree days 0 0  
Cooling Degree Days 5 9  
Month to date cooling degree days 314 257  
Year to date cooling degree days 2640 2293  
Growing Degree Days 22 (Base 50)    
Moisture  
Dew Point 58 °F    
Average Humidity 63    
Maximum Humidity 87    
Minimum Humidity 39    
Precipitation  
Precipitation 0.00 in 0.08 in 1.83 in (1972)
Month to date precipitation 3.69 1.78  
Year to date precipitation 15.45 15.85  
Sea Level Pressure  
Sea Level Pressure 29.97 in    
Wind  
Wind Speed 8 mph (NNE)    
Max Wind Speed 16 mph    
Max Gust Speed 20 mph    
Visibility 10 miles    
Events      
T = Trace of Precipitation, MM = Missing Value Source: NWS Daily Summary

Daily Weather History Graph

Daily Weather History Graph

Search for Another Location

Airport:

Trip Planner

Search our weather history database for the weather conditions in past years. The results will help you decide how hot, cold, wet, or windy it might be!

Date:

Astronomy

Sep. 21, 2013 Rise Set
Actual Time 7:29 AM CDT 7:39 PM CDT
Civil Twilight 7:05 AM CDT 8:03 PM CDT
Nautical Twilight 6:37 AM CDT 8:31 PM CDT
Astronomical Twilight 6:08 AM CDT 9:00 PM CDT
Moon 9:04 PM CDT (9/21) 9:38 AM CDT (9/21)
Length of Visible Light 12h 58m
Length of Day
12h 09m
Waning Gibbous, 94% of the Moon is Illuminated
Sep 21
Waning Gibbous
Sep 26
Last Quarter
Oct 4
New
Oct 11
First Quarter
Oct 18
Full

Hourly Weather History & Observations

Time (CDT) Temp. Dew Point Humidity Pressure Visibility Wind Dir Wind Speed Gust Speed Precip Events Conditions
12:51 AM 68.0 °F 64.0 °F 87% 29.98 in 10.0 mi North 9.2 mph - N/A   Overcast
1:51 AM 68.0 °F 64.0 °F 87% 29.98 in 10.0 mi North 9.2 mph - N/A   Overcast
2:51 AM 68.0 °F 64.0 °F 87% 29.98 in 10.0 mi North 8.1 mph - N/A   Overcast
3:51 AM 66.9 °F 63.0 °F 87% 29.98 in 10.0 mi North 15.0 mph - N/A   Overcast
4:25 AM 66.2 °F 62.6 °F 88% 30.02 in 10.0 mi North 10.4 mph - N/A   Overcast
4:51 AM 66.9 °F 63.0 °F 87% 29.98 in 10.0 mi NNE 13.8 mph - N/A   Overcast
5:41 AM 66.2 °F 62.6 °F 88% 30.03 in 10.0 mi NNE 10.4 mph - N/A   Overcast
5:51 AM 66.0 °F 62.1 °F 87% 29.99 in 10.0 mi NNE 11.5 mph - N/A   Overcast
6:03 AM 66.2 °F 62.6 °F 88% 30.03 in 10.0 mi NNE 11.5 mph - N/A   Overcast
6:51 AM 66.0 °F 62.1 °F 87% 30.00 in 10.0 mi NNE 11.5 mph - N/A   Overcast
7:51 AM 64.0 °F 60.1 °F 87% 30.01 in 10.0 mi NNE 8.1 mph - N/A   Mostly Cloudy
7:58 AM 64.4 °F 59.0 °F 83% 30.06 in 10.0 mi NNE 9.2 mph - N/A   Scattered Clouds
8:51 AM 66.0 °F 57.0 °F 73% 30.02 in 10.0 mi NNE 11.5 mph - N/A   Clear
9:51 AM 68.0 °F 55.9 °F 65% 30.03 in 10.0 mi NNE 12.7 mph - N/A   Clear
10:51 AM 69.1 °F 55.0 °F 61% 30.03 in 10.0 mi North 10.4 mph - N/A   Clear
11:51 AM 72.0 °F 52.0 °F 49% 30.02 in 10.0 mi NE 8.1 mph - N/A   Clear
12:51 PM 73.9 °F 52.0 °F 46% 30.00 in 10.0 mi NNE 9.2 mph - N/A   Clear
1:51 PM 75.9 °F 53.1 °F 45% 29.98 in 10.0 mi NE 8.1 mph - N/A   Clear
2:51 PM 78.1 °F 52.0 °F 40% 29.95 in 10.0 mi NNE 11.5 mph - N/A   Clear
3:51 PM 79.0 °F 52.0 °F 39% 29.92 in 10.0 mi NNE 9.2 mph - N/A   Clear
4:51 PM 79.0 °F 52.0 °F 39% 29.91 in 10.0 mi NE 6.9 mph - N/A   Clear
5:51 PM 79.0 °F 52.0 °F 39% 29.91 in 10.0 mi ENE 6.9 mph - N/A   Clear
6:51 PM 77.0 °F 53.1 °F 43% 29.90 in 10.0 mi NE 4.6 mph - N/A   Clear
7:51 PM 72.0 °F 55.9 °F 57% 29.91 in 10.0 mi East 4.6 mph - N/A   Clear
8:51 PM 68.0 °F 59.0 °F 73% 29.91 in 10.0 mi Calm Calm - N/A   Clear
9:51 PM 66.0 °F 59.0 °F 78% 29.92 in 10.0 mi Calm Calm - N/A   Clear
10:51 PM 64.0 °F 57.9 °F 80% 29.92 in 10.0 mi SSW 3.5 mph - N/A   Clear
11:51 PM 62.1 °F 57.9 °F 86% 29.92 in 10.0 mi Calm Calm - N/A   Clear